KK7N Weather Reports


Display with metric or nautical units.
time (UTC)temp
F
wind
direction
speed
MPH
gust
MPH
rain 1hr
in
rain 24hr
in
rain mn
in
humidity
%
barometer
mb
20260904044603 55 0 0.0 0.0 0.00 0.14 0.14 92 1010.7
20260904043057 56 0 0.0 0.0 0.00 0.14 0.14 92 1010.8
20260904041559 56 0 0.0 0.0 0.00 0.14 0.14 92 1010.6
20260904040109 56 0 1.0 3.0 0.00 0.14 0.14 92 1010.7
20260904034554 56 0 0.0 0.0 0.00 0.14 0.14 92 1010.5
20260904033051 56 0 0.0 0.0 0.00 0.14 0.14 92 1010.4
20260904031550 57 0 0.0 1.0 0.00 0.14 0.14 91 1010.2
20260904030052 56 0 0.0 1.0 0.00 0.14 0.14 91 1009.9
20260904024555 57 0 0.0 0.0 0.00 0.14 0.14 90 1010.0
20260904023053 57 0 0.0 1.0 0.00 0.14 0.14 90 1010.0
20260904021549 57 0 0.0 0.0 0.00 0.14 0.14 91 1009.9
20260904020054 57 0 0.0 3.0 0.00 0.14 0.14 90 1009.9
20260904014638 57 0 0.0 2.0 0.00 0.15 0.14 90 1010.1
20260904013054 57 102 0.0 3.0 0.00 0.15 0.14 90 1010.3
20260904011553 57 113 1.0 3.0 0.00 0.15 0.14 90 1010.2
20260904004554 57 101 1.0 3.0 0.01 0.20 0.14 91 1010.2
20260904003101 57 0 0.0 0.0 0.01 0.20 0.14 91 1010.5
20260904001551 57 0 0.0 0.0 0.07 0.20 0.14 88 1010.4
20260903234559 56 0 0.0 2.0 0.06 0.35 0.13 90 1010.3
20260903233110 58 5 0.0 11.0 0.06 0.35 0.13 85 1010.4
20260903231553 62 232 7.0 16.0 0.00 0.29 0.07 70 1010.3
20260903230055 62 72 0.0 2.0 0.00 0.29 0.07 68 1009.9
20260903224555 62 75 1.0 4.0 0.00 0.29 0.07 69 1009.9
20260903223111 62 57 1.0 3.0 0.00 0.29 0.07 70 1010.1
20260903221555 62 57 1.0 4.0 0.00 0.29 0.07 69 1010.1
20260903220122 62 304 0.0 6.0 0.00 0.29 0.07 68 1010.1
20260903214552 61 171 4.0 13.0 0.00 0.30 0.07 69 1010.3
20260903213054 61 248 3.0 13.0 0.00 0.30 0.07 66 1010.3
20260903211555 61 185 6.0 13.0 0.00 0.30 0.07 66 1010.4
20260903210057 62 220 6.0 14.0 0.00 0.30 0.07 68 1010.3
20260903204553 62 155 1.0 13.0 0.00 0.43 0.07 70 1010.2
20260903203104 61 103 2.0 11.0 0.00 0.43 0.07 77 1010.2
20260903201554 61 171 3.0 15.0 0.00 0.43 0.07 74 1010.3
20260903200112 61 211 4.0 9.0 0.00 0.43 0.07 71 1010.4
20260903194557 61 169 3.0 13.0 0.00 0.50 0.07 73 1010.3
20260903193052 60 216 6.0 17.0 0.00 0.50 0.07 77 1010.6
20260903191554 61 167 3.0 12.0 0.00 0.50 0.07 77 1010.4
20260903190048 60 252 2.0 7.0 0.00 0.50 0.07 80 1010.4
20260903184553 62 180 3.0 7.0 0.00 0.58 0.07 73 1010.4
20260903183050 61 92 2.0 4.0 0.00 0.58 0.07 79 1010.2
20260903181546 61 0 0.0 3.0 0.00 0.58 0.07 77 1010.2
20260903180053 60 90 2.0 6.0 0.00 0.58 0.07 77 1010.3
20260903174550 60 110 1.0 3.0 0.00 0.58 0.07 81 1010.3
20260903173056 58 0 0.0 0.0 0.00 0.58 0.07 89 1010.4
20260903171551 58 0 0.0 0.0 0.00 0.58 0.07 89 1010.6
20260903170059 57 0 0.0 1.0 0.00 0.58 0.07 87 1010.6
20260903164549 55 0 0.0 0.0 0.01 0.58 0.07 89 1010.6
20260903163054 54 0 0.0 0.0 0.01 0.58 0.07 90 1010.6
20260903161557 54 0 0.0 3.0 0.01 0.58 0.07 89 1010.8
20260903160051 54 0 0.0 0.0 0.02 0.58 0.07 90 1010.7
20260903154551 54 0 1.0 4.0 0.02 0.58 0.06 89 1010.7
20260903153047 54 133 0.0 2.0 0.03 0.58 0.06 89 1010.8
20260903151558 54 0 0.0 0.0 0.03 0.58 0.06 89 1010.8
20260903150108 54 163 0.0 2.0 0.02 0.57 0.05 89 1010.6
20260903144556 54 168 0.0 2.0 0.01 0.56 0.04 88 1010.5
20260903143100 54 0 0.0 1.0 0.00 0.55 0.03 87 1010.6
20260903141558 54 182 0.0 3.0 0.00 0.55 0.03 87 1010.3
20260903140057 54 163 1.0 6.0 0.00 0.55 0.03 86 1010.2
20260903134608 54 177 1.0 5.0 0.00 0.55 0.03 86 1009.9
20260903133049 54 136 1.0 5.0 0.00 0.55 0.03 87 1010.0
20260903131556 54 173 1.0 5.0 0.00 0.55 0.03 88 1009.9
20260903130101 53 138 1.0 4.0 0.00 0.55 0.03 88 1009.9
20260903124559 53 180 2.0 5.0 0.00 0.55 0.03 89 1010.1
20260903123058 53 155 1.0 2.0 0.00 0.55 0.03 89 1009.9
20260903121555 53 0 0.0 3.0 0.00 0.55 0.03 89 1010.2
20260903120109 53 0 0.0 0.0 0.00 0.55 0.03 89 1010.3
20260903114555 53 0 0.0 0.0 0.00 0.55 0.03 89 1010.3
20260903113056 54 0 0.0 0.0 0.00 0.55 0.03 89 1010.2
20260903111552 54 0 0.0 0.0 0.00 0.55 0.03 88 1010.3
20260903110058 54 0 0.0 0.0 0.00 0.55 0.03 88 1010.2
20260903104609 54 0 0.0 0.0 0.01 0.55 0.03 88 1010.2
20260903103058 54 0 0.0 4.0 0.01 0.55 0.03 89 1010.3
20260903101554 54 158 0.0 4.0 0.01 0.55 0.03 89 1010.0
20260903100046 54 173 0.0 3.0 0.01 0.55 0.03 89 1010.0
20260903094601 54 0 0.0 0.0 0.01 0.54 0.02 90 1010.0
20260903093059 54 0 0.0 0.0 0.01 0.54 0.02 90 1010.0
20260903091616 55 0 0.0 0.0 0.01 0.54 0.02 90 1010.2
20260903090059 55 0 0.0 0.0 0.01 0.54 0.02 90 1010.3
20260903084554 55 0 0.0 0.0 0.01 0.52 0.01 90 1010.2
20260903083052 55 0 0.0 0.0 0.01 0.52 0.01 90 1010.3
20260903081549 55 0 0.0 2.0 0.01 0.52 0.01 89 1010.3
20260903080055 55 168 2.0 5.0 0.01 0.52 0.01 89 1010.3
20260903074555 55 165 1.0 6.0 0.00 0.52 0.00 88 1010.3
20260903073051 55 134 1.0 7.0 0.00 0.52 0.00 88 1010.3
20260903071603 55 152 2.0 10.0 0.00 0.52 0.00 88 1010.3
20260903070053 55 184 4.0 11.0 0.00 0.52 0.00 88 1010.3
20260903064552 55 207 5.0 13.0 0.00 0.52 0.52 89 1010.3
20260903063105 55 0 0.0 0.0 0.00 0.52 0.52 90 1010.3
20260903061558 55 0 0.0 0.0 0.00 0.52 0.52 90 1010.1
20260903060059 55 0 0.0 0.0 0.00 0.52 0.52 90 1010.0
20260903054553 55 0 0.0 4.0 0.00 0.52 0.52 90 1010.2
20260903053110 56 0 0.0 2.0 0.00 0.52 0.52 90 1010.3
20260903051600 56 0 0.0 3.0 0.00 0.52 0.52 89 1010.2